Weather History for Port Lavaca, TX

Change the Weather History Date:

Saturday, January 18, 2014

  Actual Average (KVCT) Record (KVCT)
Temperature  
Mean Temperature 52 °F 54 °F  
Max Temperature 68 °F 65 °F 84 °F (1938)
Min Temperature 36 °F 43 °F 9 °F (1930)
Degree Days  
Heating Degree Days 13 12  
Month to date heating degree days 216  
Since 1 July heating degree days 710  
Cooling Degree Days 0 0  
Month to date cooling degree days 7  
Year to date cooling degree days 7  
Growing Degree Days 2 (Base 50)    
Moisture  
Dew Point 46 °F    
Average Humidity 76    
Maximum Humidity 98    
Minimum Humidity 50    
Precipitation  
Precipitation 0.00 in 0.08 in 1.35 in (1991)
Month to date precipitation 1.49  
Year to date precipitation 1.49  
Snow  
Snow 0.00 in - - ()
Month to date snowfall  
Since 1 July snowfall  
Snow Depth -    
Sea Level Pressure  
Sea Level Pressure 30.19 in    
Wind  
Wind Speed 5 mph (ESE)    
Max Wind Speed 15 mph    
Max Gust Speed 16 mph    
Visibility 9 miles    
Events Fog    
T = Trace of Precipitation, MM = Missing Value Source: NWS Daily Summary

Daily Weather History Graph

Daily Weather History Graph

Search for Another Location

Airport:

Trip Planner

Search our weather history database for the weather conditions in past years. The results will help you decide how hot, cold, wet, or windy it might be!

Date:

Astronomy

Jan. 18, 2014 Rise Set
Actual Time 7:20 AM CST 5:54 PM CST
Civil Twilight 6:54 AM CST 6:19 PM CST
Nautical Twilight 6:25 AM CST 6:48 PM CST
Astronomical Twilight 5:57 AM CST 7:17 PM CST
Moon 8:21 PM CST (1/18) 8:35 AM CST (1/18)
Length of Visible Light 11h 25m
Length of Day
10h 34m
Waning Gibbous, 94% of the Moon is Illuminated
Jan 18
Waning Gibbous
Jan 23
Last Quarter
Jan 30
New
Feb 6
First Quarter
Feb 14
Full

Hourly Weather History & Observations

Time (CST) Temp. Windchill Dew Point Humidity Pressure Visibility Wind Dir Wind Speed Gust Speed Precip Events Conditions
12:15 AM 43.2 °F 41.5 °F 37.4 °F 80% 30.27 in 10.0 mi East 3.5 mph - N/A   Clear
12:35 AM 42.8 °F - 38.3 °F 84% 30.27 in 10.0 mi Calm Calm - N/A   Clear
12:55 AM 41.0 °F - 37.6 °F 88% 30.26 in 10.0 mi Calm Calm - N/A   Clear
1:15 AM 43.5 °F - 39.2 °F 85% 30.26 in 10.0 mi Calm Calm - N/A   Clear
1:35 AM 41.5 °F - 36.9 °F 83% 30.26 in 10.0 mi Calm Calm - N/A   Clear
1:55 AM 43.5 °F - 39.9 °F 87% 30.26 in 10.0 mi Calm Calm - N/A   Clear
2:15 AM 42.8 °F - 37.9 °F 83% 30.26 in 10.0 mi Calm Calm - N/A   Clear
2:35 AM 40.6 °F - 37.4 °F 88% 30.26 in 10.0 mi Calm Calm - N/A   Clear
2:55 AM 38.7 °F - 34.9 °F 86% 30.26 in 10.0 mi Calm Calm - N/A   Clear
3:15 AM 41.2 °F 39.2 °F 38.7 °F 91% 30.26 in 10.0 mi NE 3.5 mph - N/A   Clear
3:35 AM 39.7 °F - 34.9 °F 83% 30.25 in 10.0 mi Calm Calm - N/A   Clear
4:15 AM 36.7 °F 34.1 °F 31.6 °F 82% 30.24 in 10.0 mi NE 3.5 mph - N/A   Clear
4:35 AM 39.2 °F 35.9 °F 35.4 °F 86% 30.24 in 10.0 mi ENE 4.6 mph - N/A   Clear
4:55 AM 38.8 °F 36.5 °F 35.8 °F 89% 30.23 in 10.0 mi East 3.5 mph - N/A   Clear
5:15 AM 40.1 °F 38.0 °F 37.4 °F 90% 30.23 in 10.0 mi East 3.5 mph - N/A   Clear
5:35 AM 39.4 °F 37.2 °F 36.9 °F 91% 30.23 in 10.0 mi East 3.5 mph - N/A   Clear
5:55 AM 39.9 °F 35.8 °F 34.9 °F 82% 30.23 in 10.0 mi East 5.8 mph - N/A   Clear
6:15 AM 41.0 °F 36.4 °F 34.0 °F 76% 30.22 in 10.0 mi East 6.9 mph - N/A   Clear
6:35 AM 45.0 °F 41.8 °F 36.7 °F 73% 30.22 in 10.0 mi East 5.8 mph - N/A   Clear
6:55 AM 43.5 °F 39.4 °F 35.2 °F 73% 30.22 in 10.0 mi East 6.9 mph - N/A   Clear
7:15 AM 42.3 °F 37.9 °F 32.0 °F 67% 30.23 in 10.0 mi East 6.9 mph - N/A   Clear
7:35 AM 45.5 °F 42.5 °F 35.2 °F 67% 30.23 in 10.0 mi East 5.8 mph - N/A   Clear
7:55 AM 45.0 °F 41.2 °F 37.2 °F 74% 30.23 in 10.0 mi East 6.9 mph - N/A   Clear
8:15 AM 48.0 °F - 37.9 °F 68% 30.23 in 10.0 mi East 5.8 mph - N/A   Clear
9:15 AM 54.5 °F - 46.4 °F 74% 30.24 in 10.0 mi East 10.4 mph - N/A   Overcast
9:35 AM 57.0 °F - 47.3 °F 70% 30.24 in 10.0 mi East 12.7 mph - N/A   Mostly Cloudy
9:55 AM 59.0 °F - 47.7 °F 66% 30.25 in 10.0 mi ESE 11.5 mph - N/A   Scattered Clouds
10:15 AM 60.8 °F - 47.3 °F 61% 30.25 in 10.0 mi ESE 12.7 mph - N/A   Scattered Clouds
10:35 AM 59.9 °F - 46.9 °F 62% 30.25 in 10.0 mi ESE 10.4 mph 16.1 mph N/A   Mostly Cloudy
10:55 AM 62.2 °F - 47.1 °F 58% 30.24 in 10.0 mi ESE 12.7 mph - N/A   Overcast
11:15 AM 63.1 °F - 46.4 °F 54% 30.24 in 10.0 mi ESE 11.5 mph 16.1 mph N/A   Scattered Clouds
11:35 AM 63.7 °F - 46.2 °F 53% 30.23 in 10.0 mi ESE 12.7 mph - N/A   Mostly Cloudy
11:55 AM 65.5 °F - 46.2 °F 50% 30.22 in 10.0 mi ESE 13.8 mph - N/A   Mostly Cloudy
12:15 PM 65.7 °F - 46.4 °F 50% 30.20 in 10.0 mi ESE 13.8 mph - N/A   Mostly Cloudy
12:35 PM 64.8 °F - 46.9 °F 52% 30.19 in 10.0 mi SE 11.5 mph - N/A   Mostly Cloudy
12:55 PM 65.5 °F - 47.1 °F 51% 30.18 in 10.0 mi ESE 11.5 mph - N/A   Mostly Cloudy
1:15 PM 66.6 °F - 47.8 °F 51% 30.16 in 10.0 mi ESE 12.7 mph - N/A   Mostly Cloudy
1:35 PM 66.9 °F - 48.2 °F 51% 30.15 in 10.0 mi ESE 9.2 mph - N/A   Mostly Cloudy
1:55 PM 66.7 °F - 48.7 °F 52% 30.14 in 10.0 mi SE 12.7 mph - N/A   Overcast
2:15 PM 68.0 °F - 49.3 °F 51% 30.13 in 10.0 mi ESE 10.4 mph - N/A   Mostly Cloudy
2:35 PM 68.0 °F - 49.5 °F 51% 30.13 in 10.0 mi SE 11.5 mph - N/A   Scattered Clouds
2:55 PM 68.0 °F - 50.2 °F 53% 30.13 in 10.0 mi ESE 11.5 mph - N/A   Clear
3:15 PM 68.0 °F - 51.1 °F 55% 30.12 in 10.0 mi ESE 10.4 mph - N/A   Clear
3:35 PM 67.6 °F - 51.4 °F 56% 30.12 in 10.0 mi ESE 13.8 mph - N/A   Clear
3:55 PM 67.1 °F - 51.6 °F 57% 30.11 in 10.0 mi ESE 13.8 mph - N/A   Clear
4:15 PM 66.6 °F - 52.0 °F 59% 30.11 in 10.0 mi ESE 13.8 mph - N/A   Clear
4:35 PM 66.0 °F - 52.3 °F 61% 30.11 in 10.0 mi ESE 15.0 mph - N/A   Clear
4:55 PM 65.1 °F - 52.9 °F 65% 30.11 in 10.0 mi ESE 12.7 mph - N/A   Clear
5:15 PM 64.0 °F - 53.1 °F 67% 30.11 in 10.0 mi ESE 12.7 mph - N/A   Clear
5:35 PM 62.6 °F - 53.1 °F 71% 30.11 in 10.0 mi ESE 10.4 mph - N/A   Clear
5:55 PM 60.8 °F - 53.2 °F 76% 30.12 in 10.0 mi ESE 10.4 mph - N/A   Clear
6:15 PM 59.2 °F - 53.6 °F 82% 30.12 in 10.0 mi ESE 8.1 mph - N/A   Clear
6:35 PM 58.1 °F - 53.8 °F 86% 30.12 in 10.0 mi SE 6.9 mph - N/A   Clear
6:55 PM 57.6 °F - 54.1 °F 88% 30.13 in 10.0 mi ESE 6.9 mph - N/A   Clear
7:15 PM 56.7 °F - 53.8 °F 90% 30.14 in 10.0 mi East 5.8 mph - N/A   Clear
7:35 PM 56.3 °F - 53.8 °F 91% 30.13 in 10.0 mi ESE 4.6 mph - N/A   Clear
7:55 PM 54.9 °F - 52.7 °F 92% 30.14 in 10.0 mi East 4.6 mph - N/A   Clear
8:15 PM 55.2 °F - 52.9 °F 92% 30.14 in 10.0 mi ESE 5.8 mph - N/A   Clear
8:35 PM 54.5 °F - 52.5 °F 93% 30.15 in 10.0 mi ESE 4.6 mph - N/A   Clear
8:55 PM 54.9 °F - 53.4 °F 95% 30.15 in 10.0 mi SE 4.6 mph - N/A   Clear
9:15 PM 54.0 °F - 52.7 °F 95% 30.15 in 10.0 mi SSE 5.8 mph - N/A   Clear
9:35 PM 54.5 °F - 53.2 °F 96% 30.15 in 7.0 mi SSE 5.8 mph - N/A   Clear
9:55 PM 53.8 °F - 52.7 °F 96% 30.16 in 1.5 mi Calm Calm - N/A   Mist
10:15 PM 53.6 °F - 52.9 °F 97% 30.17 in 0.8 mi Calm Calm - N/A   Mist
10:35 PM 52.9 °F - 52.0 °F 97% 30.18 in 0.2 mi Calm Calm - N/A Fog Fog
10:55 PM 50.0 °F - 49.3 °F 97% 30.18 in 0.2 mi Calm Calm - N/A Fog Fog
11:15 PM 50.7 °F - 50.2 °F 98% 30.18 in 0.2 mi Calm Calm - N/A Fog Fog
11:35 PM 50.5 °F - 50.0 °F 98% 30.18 in 0.2 mi Calm Calm - N/A Fog Fog
11:55 PM 50.5 °F - 50.0 °F 98% 30.18 in 0.5 mi Calm Calm - N/A Fog Fog